Weather History for Soldotna, AK

Change the Weather History Date:

Saturday, December 25, 2010

  Actual Average Record
Temperature  
Mean Temperature -8 °F -  
Max Temperature 0 °F 27 °F 41 °F (1973)
Min Temperature -16 °F 11 °F -35 °F (1961)
Degree Days  
Heating Degree Days 73    
Moisture  
Dew Point -12 °F    
Average Humidity 84    
Maximum Humidity 100    
Minimum Humidity 65    
Precipitation  
Precipitation 0.00 in - - ()
Sea Level Pressure  
Sea Level Pressure 29.40 in    
Wind  
Wind Speed 2 mph (East)    
Max Wind Speed 6 mph    
Max Gust Speed -    
Visibility 10 miles    
Events      
Averages and records for this station are not official NWS values.
T = Trace of Precipitation, MM = Missing Value Source: NWS Daily Summary

Daily Weather History Graph

Daily Weather History Graph

Search for Another Location

Airport:

Trip Planner

Search our weather history database for the weather conditions in past years. The results will help you decide how hot, cold, wet, or windy it might be!

Date:

Astronomy

Dec. 25, 2010 Rise Set
Actual Time 10:12 AM AKST 3:56 PM AKST
Civil Twilight 9:12 AM AKST 4:55 PM AKST
Nautical Twilight 8:15 AM AKST 5:53 PM AKST
Astronomical Twilight 7:22 AM AKST 6:46 PM AKST
Moon 11:02 PM AKST (12/25) 11:43 AM AKST (12/25)
Length of Visible Light 7h 42m
Length of Day
5h 44m
Waning Gibbous, 75% of the Moon is Illuminated
Dec 25
Waning Gibbous
Dec 27
Last Quarter
Jan 4
New
Jan 12
First Quarter
Jan 19
Full

Hourly Weather History & Observations

Time (AKST) Temp. Windchill Dew Point Humidity Pressure Visibility Wind Dir Wind Speed Gust Speed Precip Events Conditions
12:56 AM -16.6 °F -29.3 °F -20.2 °F 84% 29.42 in 10.0 mi ENE 4.6 mph - N/A   Partly Cloudy
1:56 AM -16.6 °F - -18.4 °F 92% 29.43 in 10.0 mi Calm Calm - N/A   Clear
2:56 AM -16.6 °F -31.3 °F -18.4 °F 92% 29.43 in 10.0 mi East 5.8 mph - N/A   Mostly Cloudy
3:56 AM -16.6 °F -26.8 °F -18.4 °F 92% 29.44 in 10.0 mi East 3.5 mph - N/A   Clear
4:56 AM -14.8 °F -24.8 °F -18.4 °F 84% 29.42 in 10.0 mi ENE 3.5 mph - N/A   Partly Cloudy
5:56 AM -14.8 °F - -18.4 °F 84% 29.43 in 10.0 mi Calm Calm - N/A   Mostly Cloudy
6:56 AM -11.2 °F - -14.8 °F 84% 29.42 in 10.0 mi Calm Calm - N/A   Overcast
7:56 AM -7.6 °F - -7.6 °F 100% 29.42 in 10.0 mi Calm Calm - N/A   Overcast
8:56 AM -5.8 °F - -7.6 °F 92% 29.41 in 10.0 mi Calm Calm - N/A   Overcast
9:56 AM -2.2 °F -10.4 °F -5.8 °F 85% 29.42 in 10.0 mi ENE 3.5 mph - N/A   Overcast
10:56 AM -0.4 °F - -4.0 °F 85% 29.41 in 10.0 mi Calm Calm - N/A   Scattered Clouds
11:56 AM -0.4 °F -8.3 °F -4.0 °F 85% 29.41 in 10.0 mi East 3.5 mph - N/A   Mostly Cloudy
12:56 PM -0.4 °F - -4.0 °F 85% 29.40 in 10.0 mi Calm Calm - N/A   Mostly Cloudy
1:56 PM -0.4 °F -10.4 °F -5.8 °F 78% 29.39 in 10.0 mi East 4.6 mph - N/A   Scattered Clouds
2:56 PM -2.2 °F -12.5 °F -7.6 °F 78% 29.38 in 9.0 mi East 4.6 mph - N/A   Clear
3:56 PM -4.0 °F - -9.4 °F 78% 29.37 in 10.0 mi Calm Calm - N/A   Clear
4:56 PM -5.8 °F -18.4 °F -9.4 °F 84% 29.37 in 10.0 mi East 5.8 mph - N/A   Clear
5:56 PM -7.6 °F - -16.6 °F 65% 29.36 in 10.0 mi Calm Calm - N/A   Clear
6:56 PM -9.4 °F -18.6 °F -13.0 °F 84% 29.36 in 10.0 mi East 3.5 mph - N/A   Clear
7:56 PM -9.4 °F - -14.8 °F 77% 29.36 in 10.0 mi Calm Calm - N/A   Clear
8:56 PM -9.4 °F - -13.0 °F 84% 29.36 in 10.0 mi Calm Calm - N/A   Clear
9:56 PM -11.2 °F - -16.6 °F 77% 29.35 in 10.0 mi Calm Calm - N/A   Clear